Location: ??? ?????? ??????
(31.8871°N, 35.4272°E)
Time: 22:22:02
(UTC+00:00)

Daily predictions for brighter satellites

Satellite Brightness Start Highest point End
(mag) Time Altitude Azimuth Time Altitude Azimuth Time Altitude Azimuth
Cosmos 1980 Rocket 3.4 14:53:42 10° SSE 14:57:51 21° E 15:02:01 10° NE
Cosmos 1356 Rocket 3.5 14:57:01 10° S 15:01:04 59° E 15:05:12 10° NNE
Cosmos 1869 3.2 14:59:49 10° S 15:03:46 80° E 15:07:43 10° N
Cosmos 1151 Rocket 4.4 15:04:00 10° SE 15:07:03 19° E 15:10:08 10° NE
Cosmos 2297 Rocket 2.6 15:03:58 10° N 15:09:17 40° ENE 15:14:33 10° SE
Cosmos 2227 Rocket 2.7 15:04:06 10° N 15:09:19 37° ENE 15:14:30 10° SE
Sich 1 3.7 15:05:55 10° NNE 15:09:51 32° E 15:13:47 10° SE
COSMO-SKYMED 1 3.3 15:06:45 10° NNE 15:10:43 34° E 15:14:39 10° SSE
COBE Rocket 3.8 15:06:39 10° NNE 15:11:25 75° ESE 15:16:01 10° S
Cosmos 923 Rocket 4.1 15:07:23 10° S 15:12:32 60° ESE 15:17:39 10° NNE
Lacrosse 4 Rocket 1.4 15:08:37 10° SSW 15:12:43 87° WNW 15:16:48 10° NNE
Cosmos 2369 3.7 15:15:21 10° SSW 15:20:59 79° ESE 15:26:40 10° NNE
CZ-4 R/B 2.6 15:17:55 10° ESE 15:21:05 21° ENE 15:24:14 10° NNE
H-2A R/B 2.9 15:21:29 10° S 15:25:20 80° WSW 15:29:11 10° NNW
BREEZE-M DEB (TANK) 4.1 15:21:46 10° S 15:25:24 37° ESE 15:36:17 10° NE
Delta 168 4.2 15:26:19 10° SW 15:28:53 22° SSE 15:31:46 10° ESE
YAOGAN 1 3.7 15:27:17 10° ESE 15:30:34 22° ENE 15:33:52 10° NNE
NOSS 2-3 (E) 3.8 15:28:43 10° SW 15:32:55 70° WNW 15:37:34 10° NNE
Cosmos 2360 4.3 15:29:00 10° S 15:34:34 60° ESE 15:40:10 10° NNE
SKYMED 3 4.5 15:30:30 10° NNE 15:34:50 69° E 15:39:08 10° S
SMAP 3.9 15:31:09 10° S 15:35:41 55° W 15:40:16 10° NNW
Cosmos 1697 Rocket 2.8 15:31:12 10° SSW 15:36:51 81° WNW 15:42:31 10° NNE
NOAA 12 4.1 15:32:30 10° SSE 15:37:49 82° ENE 15:43:10 10° N
Cosmos 2082 4.1 15:32:41 10° N 15:37:56 39° ENE 15:43:09 10° SE
Cosmos 2278 3.7 15:34:40 10° SSW 15:40:19 84° ESE 15:46:02 10° NNE
APEX 3.1 15:36:19 10° S 15:40:22 55° ESE 15:42:39 19° NE
NOSS 3-1 (A) 4.2 15:35:30 10° SW 15:40:37 44° NW 15:46:21 10° NNE
USA 116 4.5 15:36:28 10° NNE 15:41:13 53° E 15:46:18 10° S
NOSS 2-3 (D) 4.1 15:38:16 10° SW 15:42:26 60° WNW 15:47:03 10° NNE
ATLAS 5 CENTAUR R/B 2.5 15:37:43 10° NNW 15:43:52 69° ENE 15:50:45 10° SE
Cosmos 2034 Rocket 4.2 15:40:18 10° N 15:46:27 50° E 15:52:35 10° SSE
Cosmos 1933 4.2 15:44:08 10° SSE 15:47:40 29° E 15:48:35 26° ENE
Envisat 2.9 15:44:52 10° SSE 15:49:56 86° ENE 15:55:02 10° N
Okean-O 3.1 15:47:37 10° S 15:51:59 63° W 15:56:23 10° NNW
SeaSat 1 2.4 15:48:29 10° SE 15:53:21 66° ENE 15:58:14 10° NNW
ATLAS 5 CENTAUR R/B 3.4 15:49:54 10° SW 15:53:40 28° SSE 16:00:45 15° ESE
BREEZE-M R/B 3.7 15:47:50 10° SSW 15:54:04 40° SE 15:55:29 30° E
CZ-3 Stage 3 1.3 15:54:06 10° W 15:56:09 52° S 15:56:11 52° S
SKYMED 2 4.2 15:54:34 10° N 15:58:51 58° WNW 16:03:05 10° SSW
CZ-3C R/B 3.3 15:55:36 10° WSW 15:59:03 16° SSW 16:01:31 10° SSE
SL-8 R/B 3.7 15:56:21 10° SW 16:01:07 67° SE 16:03:04 35° ENE
Tsikada Rocket 4.0 15:55:51 10° S 16:02:06 66° E 16:08:25 10° NNE
Cosmos 1633 3.1 15:59:50 10° NNW 16:03:25 59° W 16:06:59 10° S
Cosmos 1816 Rocket 4.4 15:58:33 10° S 16:04:50 75° E 16:11:12 10° N
Cosmos 1862 3.3 16:01:15 10° N 16:05:14 80° W 16:09:13 10° S
NOAA 11 4.4 16:06:01 10° SE 16:11:05 43° ENE 16:16:12 10° N
DELTA 2 R/B (1) 3.8 16:08:18 10° SW 16:13:45 56° SSE 16:15:24 41° E
CSL-04 Debris 4.1 16:08:47 10° SSE 16:14:14 73° ENE 16:19:43 10° N
CZ-3 Stage 3 3.3 16:12:52 10° W 16:15:58 17° SW 16:17:34 11° S
GPS 2-04 Rocket1 2.2 16:12:43 10° WSW 16:15:59 78° WNW 16:15:59 78° WNW
TRAILBLAZER 4.5 16:13:01 10° NNW 16:17:37 89° SW 16:20:25 23° SSE
Cosmos 2228 Rocket 3.1 16:13:57 10° S 16:18:06 55° ESE 16:18:06 55° ESE
YAOGAN 6 3.6 16:18:50 10° S 16:22:11 44° W 16:25:33 10° NNW
ATLAS 5 CENTAUR R/B 3.3 16:20:41 10° SSW 16:23:48 25° SSE 16:23:48 25° SSE
Cosmos 158 Rocket 4.5 16:24:07 10° SSW 16:29:24 61° WNW 16:33:24 17° N
CSL-04 Rocket 3.7 16:25:18 10° S 16:30:41 79° WSW 16:36:02 10° NNW
Cosmos 1606 3.6 16:27:14 10° S 16:29:40 39° S 16:29:40 39° S
SL-16 R/B 2.9 16:30:47 10° S 16:34:34 37° SSE 16:34:34 37° SSE
Cosmos 1980 Rocket 3.4 16:36:11 10° SW 16:41:28 40° WNW 16:46:07 13° N
Cosmos 2322 Rocket 3.4 16:40:18 10° S 16:42:56 27° SSE 16:42:56 27° SSE
Cosmos 2227 Rocket 4.5 16:48:42 10° NW 16:53:03 23° W 16:57:24 10° SSW
CZ-4 R/B 3.8 16:52:37 10° SSW 16:55:56 23° W 16:59:15 10° NW
H-2A R/B 4.0 15:45:49 10° W 17:03:10 85° SSW 17:06:50 52° ESE
Hubble Space Telescope 3.4 17:02:18 10° SW 17:03:08 14° SW 17:03:08 14° SW
Centaur D-1AR AC-36 4.0 17:06:03 10° WSW 17:23:29 35° S 17:23:58 34° S
Centaur D-1A AC-31 3.1 17:21:49 10° WSW 17:23:25 29° WSW 17:23:25 29° WSW
